{"data":{"norad_id":46054,"intl_designator":"2020-055AD","name":"STARLINK-1548","alt_names":[],"object_type":"PAYLOAD","status":"ACTIVE","operator":null,"country":"US","launch_date":"2020-08-07","launch_site_code":"AFETR","launch_vehicle":null,"mission":null,"orbit_class":"UNKNOWN","rcs_meters":null,"size_class":null,"mass_kg":null,"dimensions":null,"purposes":["comms"],"wikipedia_slug":null,"has_3d_model":false,"image_url":null,"decayed_at":null,"tle_current":{"epoch":"2026-05-25T05:01:13.101024Z","epoch_age_seconds":50257,"freshness":"FRESH","line1":"1 46054U 20055AD  26145.20917941  .00004739  00000+0  16428-3 0  9998","line2":"2 46054  53.1581 118.1961 0001097  88.9430 271.1697 15.31719040320795","mean_motion":15.3171904,"eccentricity":0.0001097,"inclination_deg":53.1581,"raan_deg":118.1961,"arg_perigee_deg":88.943,"mean_anomaly_deg":271.1697,"bstar":0.00016428,"rev_number":32079,"period_min":94.012019332214,"perigee_km":469.93192298417,"apogee_km":471.43455414451,"semimajor_km":6848.8202385643,"source":"CELESTRAK","updated_at":"2026-05-25T13:38:16.461914Z"}}}